Home   Weather   Koror   Past weeks

Flag for Palau Past Weather in Koror, Palau — Yesterday and Last 2 Weeks

Now
81 °F

Passing clouds.


Feels Like: 87 °F
Forecast: 78 / 85 °F
Wind: 17 mph from Northeast

Location: Koror / Palau Island

Current Time: Jan 25, 2017 at 4:47:20 am

Latest Report: Jan 25, 2017 at 3:50 am


Visibility: 14 mi

Pressure: 29.82 "Hg

Humidity: 89%

Dew Point: 77 °F

Location of KororLocation

Past Weather in Koror — Graph

°F

Koror Temperature Yesterday

Maximum temperature yesterday: 82 °F (at 11:55 am)
Minimum temperature yesterday: 79 °F (at 12:50 am)
Average temperature yesterday: 81 °F

High & Low Weather Summary for the Past Weeks

 TemperatureHumidityPressure
High88 °F (Jan 13, 11:55 am)100% (Jan 11, 12:50 am)29.94 "Hg (Jan 11, 12:50 am)
Low73 °F (Jan 12, 5:54 am)70% (Jan 15, 11:50 am)29.69 "Hg (Jan 12, 2:50 pm)
Average81 °F90%29.82 "Hg
* Reported Jan 10 5:52 am — Jan 25 2:50 am, Koror, Weather by CustomWeather, © 2017

Note: Actual official high and low records may vary slightly from our data, if they occured in-between our weather recording intervals... More about our weather records

Advertising

Koror Weather History for the Previous 24 Hours

Scroll right to see more
 ConditionsComfort  
Time TempWeatherWind HumidityBarometerVisibility
2:50 am
Wed, Jan 25
81 °FPartly cloudy.17 mph89%29.83 "Hg14 mi
1:50 am81 °FPartly cloudy.13 mph89%29.84 "Hg14 mi
12:50 am81 °FPartly cloudy.15 mph89%29.86 "Hg14 mi
11:50 pm
Tue, Jan 24
81 °FMostly cloudy.13 mph89%29.86 "Hg14 mi
10:50 pm81 °FMostly cloudy.12 mph89%29.87 "Hg14 mi
9:50 pm81 °FMostly cloudy.12 mph89%29.87 "Hg14 mi
8:50 pm81 °FOvercast.12 mph89%29.87 "Hg14 mi
7:50 pm82 °FMostly cloudy.15 mph84%29.87 "Hg14 mi
6:50 pm82 °FMostly cloudy.13 mph84%29.85 "Hg14 mi
5:50 pm81 °FMostly cloudy.14 mph89%29.84 "Hg14 mi
4:50 pm81 °FMostly cloudy.13 mph94%29.83 "Hg14 mi
3:50 pm82 °FMostly cloudy.16 mph89%29.82 "Hg12 mi
2:50 pm82 °FMostly cloudy.9 mph89%29.83 "Hg10 mi
1:50 pm82 °FMostly cloudy.12 mph89%29.84 "Hg12 mi
12:50 pm82 °FMostly cloudy.16 mph89%29.85 "Hg10 mi
11:55 am82 °FMostly cloudy.15 mph89%29.86 "Hg12 mi
10:55 am81 °FMostly cloudy.15 mph89%29.89 "Hg12 mi
9:50 am79 °FSprinkles. Mostly cloudy.15 mph89%29.89 "Hg8 mi
8:50 am79 °FSprinkles. Mostly cloudy.13 mph89%29.90 "Hg10 mi
7:50 am79 °FSprinkles. Mostly cloudy.9 mph94%29.89 "Hg12 mi
6:50 am81 °FCloudy.15 mph89%29.87 "Hg14 mi
4:50 am79 °FOvercast.14 mph94%29.83 "Hg14 mi
Weather by CustomWeather, © 2017

See weather overviewHow to use our weather pages